Regional Weather Roundup
Issued by NWS Upton, NY

Current Version | Previous Version | Graphics & Text | Print | Product List | Glossary Off
Versions: 1 2 3 4 5 6 7 8 9 10 11 12 13 14 15 16 17 18 19 20 21 22 23 24 25 26 27 28 29 30 31 32 33 34 35 36 37 38 39 40 41 42 43 44 45 46 47 48 49 50

820
ASUS41 KOKX 211309
RWROKX

REGIONAL WEATHER ROUNDUP
NATIONAL WEATHER SERVICE NEW YORK NY
900 AM EDT THU SEP 21 2017

NOTE: "FAIR" INDICATES FEW OR NO CLOUDS BELOW 12,000 FEET WITH NO
SIGNIFICANT WEATHER AND/OR OBSTRUCTIONS TO VISIBILITY.

NYZ071-072-176-178-NJZ106-104-211400-
NEW YORK CITY METRO AREA

CITY           SKY/WX    TMP DP  RH WIND       PRES   REMARKS
Central Park   CLOUDY    72  64  76 VRB6      30.04R
Bronx Bot Gard   N/A     73  63  68 NW6       30.01S
LaGuardia APRT CLOUDY    74  65  73 N13       29.99R
Kennedy INTL   CLOUDY    75  63  66 N14       30.00R
Breezy Point     N/A     73 N/A N/A N13G20      N/A
Newark/Liberty CLOUDY    75  64  68 N13       30.01R
Teterboro      CLOUDY    73  64  73 N7        30.00S
$$

NYZ177-179-078>081-211400-
LONG ISLAND NEW YORK

CITY           SKY/WX    TMP DP  RH WIND       PRES   REMARKS
Jones Beach      N/A     72 N/A N/A N15G21      N/A
Matinecock PT    N/A     72 N/A N/A N17         N/A
Farmingdale    CLOUDY    73  64  73 N9        29.98R
MacArthur/ISP  CLOUDY    73  64  73 N15G23    29.96R
Shirley        CLOUDY    74  64  71 N12G22    29.96R
Mt Sinai Harb    N/A     72 N/A N/A N17         N/A
Westhampton    CLOUDY    71  62  73 N15G26    29.95R
East Hampton   CLOUDY    70  63  78 N13G22    29.93R
Montauk          N/A     71  64  78 N12G23    29.93R
$$

NYZ052-065-067-211400-
HUDSON VALLEY

CITY           SKY/WX    TMP DP  RH WIND       PRES   REMARKS
White Plains   CLOUDY    71  63  75 NW13      30.01R
Larchmont Harb   N/A     72 N/A N/A NW12        N/A
Croton On Huds   N/A     73 N/A N/A NW6         N/A
Newburgh       MOSUNNY   72  66  83 NE12G21   30.06R
Montgomery     PTSUNNY   70  65  84 N8        30.05S
Poughkeepsie   PTSUNNY   70  64  81 N10       30.03S
Albany         PTSUNNY   68  63  84 N8        30.09R
$$

NJZ001-105-106-008-010-013-015-019>022-104-211400-
NEW JERSEY

CITY           SKY/WX    TMP DP  RH WIND       PRES   REMARKS
Newark/Liberty CLOUDY    75  64  68 N13       30.01R
Teterboro      CLOUDY    73  64  73 N7        30.00S
Caldwell       CLOUDY    72  66  81 VRB5      30.04R
Somerville     NOT AVBL
Linden         NOT AVBL
Perth Amboy      N/A     72 N/A N/A N12         N/A
Sussex         MOSUNNY   64  63  96 CALM      30.06R
Andover          N/A     66  64  93 CALM      30.07R
Trenton        SUNNY     72  65  78 N8        30.03S
Millville      SUNNY     74  67  78 N7        30.03R
Atlantic City  MOSUNNY   75  66  73 N12       30.01S
Wrightstown    MOSUNNY   73  65  75 NW10      29.99S
Toms River     MOSUNNY   70  64  81 NW8       30.02R
Belmar         CLOUDY    72  65  78 NW12      30.02R
$$

PAZ047>061-062-071-211400-
EASTERN PENNSYLVANIA

CITY           SKY/WX    TMP DP  RH WIND       PRES   REMARKS
Philadelphia   MOSUNNY   76  63  64 N9        30.04R
Allentown      SUNNY     70  62  76 W3        30.06S
Scranton       MOSUNNY   67  63  87 S3        30.11S
$$

CTZ002-004>006-009-010-012-RIZ004-006-007-MAZ004-011-015-211400-
SOUTHERN NEW ENGLAND
 IN CT

CITY           SKY/WX    TMP DP  RH WIND       PRES   REMARKS
Bradley INTL   PTSUNNY   71  62  73 N15G23    30.01R
Hartford       PTSUNNY   72  62  71 N14G23    29.99R
Danbury        CLOUDY    73  62  68 N14G20    30.03R
Wtrbury/Oxford PTSUNNY   70  62  76 N15G21    30.02R
Norwalk Harbor   N/A     72 N/A N/A N15         N/A
Bridgeport     PTSUNNY   73  62  68 N14       29.98R
Meriden        CLOUDY    72  61  68 N16G28    29.99R
New Haven      CLOUDY    73  62  68 N16G22    29.98R
Chester        CLOUDY    70  63  78 N10G16    29.98R
Groton         CLOUDY    71  62  73 N20G26    29.92R
Wilimantic     CLOUDY    71  62  73 NE15G28   29.98R

 IN RI

CITY           SKY/WX    TMP DP  RH WIND       PRES   REMARKS
Providence     CLOUDY    70  63  78 N23G37    29.95R
Block Island   CLOUDY    69  63  81 N21G35    29.90R
Westerly       CLOUDY    72  63  73 N17G29    29.92R
 IN MA

CITY           SKY/WX    TMP DP  RH WIND       PRES   REMARKS
Boston         CLOUDY    68  60  75 N24G38    29.99R
Worcester      CLOUDY    65  58  78 N16G25    30.03R
Westfield      MOSUNNY   72  62  71 N15       30.02S
Provincetown   CLOUDY    63  57  81 NE30G41   29.91R
Nantucket      CLOUDY    65  65 100 N35G47    29.75R FOG
$$

ANZ330-335-338-340-345-350-353-355-211400-
COASTAL MARINE OBSERVATIONS


STATION/POSITION TIME  SKY/WX   TEMP    WIND        PRES    VSBY  WAVE
                                AIR SEA DIR/SP/G                  HT/PER
                 (UTC)          (F)     (DEG/KT/KT) (MB)    (MI)  (FT/S)
NY HARB ENTRANCE 1150            72 70  340/ 14/ 16 1014.1          4/ 9
20 S FIRE ISLAND 1150            70 67  340/ 14/ 16 1013.6          5/ 8
GREAT SOUTH BAY  1230            72 71  360/ 14/ 17   N/A
23 SSW MONTAUK P 1150            69 66              1011.9          6/10
15 E BARNEGAT LI 1230               69                N/A           5/ 8
HUDSON CANYON    1150            71 70  330/ 19/ 21 1011.6          6/10
KINGS POINT      1224            72 71   20/ 16/ 19 1016.5
EXECUTION ROCKS  1245            72     360/ 10/ 14   N/A
WESTERN LI SOUND NOT AVBL
CENTRAL LI SOUND 1230            71     360/ 16/ 19   N/A           2
EASTERN LI SOUND NOT AVBL
ROBBINS REEF     1224            72     330/  9/ 13 1016.8
$$


>>>>>>>>>>>>>>>>>>>>>>>>>>>> KEY <<<<<<<<<<<<<<<<<<<<<<<<<<<
>                                                          <
>     SKY/WX - Sky Condition/Present Weather               <
>     TMP    - Temperature in Fahrenheit                   <
>     DP     - Dew Point in Fahrenheit                     <
>     RH     - Relative Humidity in Percent                <
>     WIND   - Direction (from) and Speed in MPH           <
>     PRES   - Mean Sea Level Pressure (inches of Hg)      <
>     WCI    - Wind Chill Index                            <
>     VSB    - VISIBILITY IN MILES                         <
>     HX     - HEAT INDEX                                  <
>     TC     - TEMPERATURE IN CELSIUS                      <
>     VRB    - VARIABLE WIND DIRECTION                     <
>                                                          <
>>>>>>>>>>>>>>>>>>>>>>>>>>>> KEY <<<<<<<<<<<<<<<<<<<<<<<<<<<




USA.gov is the U.S. government's official web portal to all federal, state and local government web resources and services.